AirNav   ATP
 
 1583 users online  

38WA Blakely Island Airport
Blakely Island, Washington, USA

GOING TO BLAKELY ISLAND?


FAA INFORMATION EFFECTIVE 24 MAY 2018

Location

FAA Identifier: 38WA
Lat/Long: 48-34-44.3700N / 122-49-34.6470W
48-34.739500N / 122-49.577450W
48.5789917 / -122.8262908
(estimated)
Elevation: 66 ft. / 20.1 m (surveyed)
Variation: 21E (1985)
Time zone: UTC -7 (UTC -8 during Standard Time)
Zip code: 98222

Airport Operations

Airport use: Private use. Permission required prior to landing
Activation date: 01/1948
Control tower: no
ARTCC: SEATTLE CENTER
FSS: SEATTLE FLIGHT SERVICE STATION
Attendance: CONTINUOUS
Wind indicator: lighted
Segmented circle: no
Lights: ACTVT MIRL RY 01/19 - 122.9.

Airport Communications

WX AWOS-3 at ORS (8 nm NW): 135.425 (360-376-6045)
WX ASOS at FHR (9 nm SW): 135.675 (360-378-8491)
WX ASOS at BLI (17 nm NE): PHONE 360-671-8688
WX AWOS-3 at BVS (17 nm E): 121.125 (360-757-7767)
  • MULTICOM FREQ 122.9.

Nearby radio navigation aids

VOR radial/distance  VOR name  Freq  Var
CVVr330/20.5PENN COVE VOR/DME117.2019E
HUHr184/24.1WHATCOM VORTAC113.0020E
YYJr092/27.6VICTORIA VOR/DME113.7017E
YVRr140/32.5VANCOUVER VOR/DME115.9017E

 
NDB name  Hdg/Dist  Freq  Var  ID
FRIDAY HARBOR046/8.828417EFHR ..-. .... .-.
SKAGIT/BAY VIEW276/17.524016EBVS -... ...- ...

Airport Services

Runway Information

Runway 1/19

Dimensions: 2200 x 40 ft. / 671 x 12 m
ADDNL 200 X 40' OVRNS & TURBC BOTH ENDS RWY 01/19.
Surface: asphalt
Runway edge lights: medium intensity
RUNWAY 1  RUNWAY 19
Traffic pattern: leftright
Displaced threshold: 252 ft.122 ft.
Obstructions: trees, 2000 ft. from runwaytrees, 2000 ft. from runway

Airport Ownership and Management from official FAA records

Ownership: Privately-owned
Owner: BLAKELY ISLAND MAINT COM
355 BLAKELY DR
BLAKELY ISLAND, WA 98222
Manager: DAN ROACH
466 MARINE DR
BLAKLEY ISLAND, WA 98222
Phone 360-375-6294
SECONDARY PHONE 206-276-3054 DECRRR@GMAIL.COM SECONDARY CONTACT JOEL STEWARD 509-435-7591 360-375-6662

Airport Operational Statistics

Aircraft based on the field: 11
Single engine airplanes: 5
Multi engine airplanes: 6
    

Additional Remarks

TREES BOTH SIDES OF RWY PENT TRSNL SFC.
WATCH FOR DEER ON RWY.
MIDDLE RY 01/19 HIGHER THAN EITHER END. CHECK ARPT TFC FM RUN-UP PAD CENTER OF FLD BEFORE TKOF.

Instrument Procedures

There are no published instrument procedures at 38WA.

Some nearby airports with instrument procedures:

KORS - Orcas Island Airport (8 nm NW)
KFHR - Friday Harbor Airport (9 nm SW)
KNUW - Whidbey Island Naval Air Station (Ault Field) (15 nm SE)
KBLI - Bellingham International Airport (17 nm NE)
KBVS - Skagit Regional Airport (17 nm E)
 
Loc | Ops | Rwys | IFR | FBO | Links
Com | Nav | Svcs | Stats | Notes

AirNav Hotels Sweepstakes
 
Area around 38WA (Blakely Island Airport)
 
Road maps at: MapQuest Bing Google
 
Aerial photo
WARNING: Photo may not be current or correct
Aerial photo of 38WA (Blakely Island Airport)
Photo by Domenick Venezia, 2003-09

Do you have a better or more recent aerial photo of Blakely Island Airport that you would like to share? If so, please send us your photo.

 
Sectional chart

 
Airport distance calculator
Flying to Blakely Island Airport? Find the distance to fly.

From to 38WA

Sunrise and sunset
Times for 18-Jun-2018
 Local
(UTC-7)
 Zulu
(UTC)
Morning civil twilight04:2711:27
Sunrise05:0912:09
Sunset21:1504:15
Evening civil twilight21:5804:58

Current date and time
Zulu (UTC)  18-Jun-2018 17:50:07
Local (UTC-7)  18-Jun-2018 10:50:07
 
METAR
KORS 
8nm N 
181735Z AUTO 32005KT 10SM CLR 20/14 A2995 RMK AO2
74S 
8nm SE 
SuperAWOS
181734Z AUTO 00000KT 10SM 22/13 A2997
KFHR 
9nm SW 
181653Z AUTO 11004KT 10SM CLR 23/12 A2997 RMK AO2 SLP146 T02280122 TSNO
CWEZ 
14nm NW 
181700Z AUTO 28002KT 22/13 RMK AO1 SLP141 T02190131 51007
KNUW 
15nm SE 
181656Z 31004KT 10SM FEW030 FEW140 SCT250 19/11 A2999 RMK AO2 SLP155 T01890111 $
CWZO 
16nm W 
181700Z AUTO 13003KT RMK AO1
KBVS 
18nm E 
181735Z AUTO 00000KT 10SM CLR 23/13 A2995 RMK A01
KBLI 
18nm NE 
181653Z 00000KT 10SM CLR 22/12 A2995 RMK AO2 SLP147 T02220117
CWYJ 
20nm SW 
181700Z AUTO 08002KT 22/12 RMK AO1 SLP145 T02220116 51007
TAF
KNUW 
15nm SE 
1815/1915 VRB06KT 9999 FEW140 FEW250 QNH2993INS FM181900 28009KT 9999 SCT250 QNH2990INS FM190200 26007KT FEW030 SCT250 QNH2995INS FM190600 VRB06KT 9999 FEW120 SCT250 QNH2999INS T23/1822Z T16/1912Z FS30004
KBLI 
18nm NE 
181134Z 1812/1912 VRB03KT P6SM SCT250 FM181800 23006KT P6SM FEW150 SCT250 FM190300 17006KT P6SM FEW150 SCT250 FM190900 17011KT P6SM SCT200
NOTAMs
Click for the latest NOTAMs
NOTAMs are issued by the DoD/FAA and will open in a separate window not controlled by AirNav.

 

 
 

Would you like to see your business listed on this page?

 If your business provides an interesting product or service to pilots, flight crews, aircraft, or users of the Blakely Island Airport, you should consider listing it here.  To start the listing process, click on the button below
 
Add a business
 

Other Pages about Blakely Island Airport

www.rockisland.com/...
 
Update a link
 
Copyright © AirNav, LLC. All rights reserved. Privacy Policy  Contact